| time (UTC) | temp F | wind direction | speed MPH | gust MPH | rain 1hr in | rain 24hr in | rain mn in | humidity % | barometer mb |
| 20260503021326 | 57 | 301 | 2.0 | 4.0 | 0.00 | 0.00 | 0.00 | 68 | 1021.0 |
| 20260503020825 | 58 | 42 | 1.0 | 4.0 | 0.00 | 0.00 | 0.00 | 67 | 1021.0 |
| 20260503020345 | 58 | 42 | 2.0 | 5.0 | 0.00 | 0.00 | 0.00 | 66 | 1021.0 |
| 20260503015823 | 59 | 320 | 3.0 | 5.0 | 0.00 | 0.00 | 0.00 | 66 | 1021.0 |
| 20260503015320 | 59 | 5 | 2.0 | 10.0 | 0.00 | 0.00 | 0.00 | 65 | 1021.1 |
| 20260503014819 | 59 | 351 | 5.0 | 10.0 | 0.00 | 0.00 | 0.00 | 65 | 1021.0 |
| 20260503014318 | 59 | 331 | 5.0 | 8.0 | 0.00 | 0.00 | 0.00 | 65 | 1021.1 |
| 20260503013817 | 59 | 300 | 5.0 | 8.0 | 0.00 | 0.00 | 0.00 | 66 | 1021.1 |
| 20260503013315 | 58 | 323 | 5.0 | 8.0 | 0.00 | 0.00 | 0.00 | 68 | 1021.1 |
| 20260503012833 | 57 | 299 | 6.0 | 8.0 | 0.00 | 0.00 | 0.00 | 67 | 1021.2 |
| 20260503012331 | 58 | 304 | 3.0 | 8.0 | 0.00 | 0.00 | 0.00 | 66 | 1021.2 |
| 20260503011828 | 58 | 44 | 3.0 | 5.0 | 0.00 | 0.00 | 0.00 | 66 | 1021.2 |
| 20260503011324 | 58 | 296 | 2.0 | 10.0 | 0.00 | 0.00 | 0.00 | 66 | 1021.3 |
| 20260503010843 | 59 | 351 | 5.0 | 10.0 | 0.00 | 0.00 | 0.00 | 65 | 1021.4 |
| 20260503010340 | 59 | 329 | 7.0 | 10.0 | 0.00 | 0.00 | 0.00 | 64 | 1021.4 |
| 20260503005819 | 59 | 360 | 7.0 | 10.0 | 0.00 | 0.00 | 0.00 | 64 | 1021.4 |
| 20260503005336 | 59 | 342 | 5.0 | 8.0 | 0.00 | 0.00 | 0.00 | 65 | 1021.4 |
| 20260503004859 | 59 | 331 | 4.0 | 6.0 | 0.00 | 0.00 | 0.00 | 65 | 1021.5 |
| 20260503004357 | 58 | 304 | 3.0 | 5.0 | 0.00 | 0.00 | 0.00 | 66 | 1021.5 |
| 20260503003830 | 58 | 351 | 3.0 | 5.0 | 0.00 | 0.00 | 0.00 | 66 | 1021.5 |
| 20260503003327 | 58 | 341 | 3.0 | 5.0 | 0.00 | 0.00 | 0.00 | 65 | 1021.6 |
| 20260503002825 | 58 | 321 | 3.0 | 5.0 | 0.00 | 0.00 | 0.00 | 66 | 1021.7 |
| 20260503002342 | 57 | 334 | 3.0 | 4.0 | 0.00 | 0.00 | 0.00 | 67 | 1021.8 |
| 20260503001839 | 58 | 342 | 3.0 | 6.0 | 0.00 | 0.00 | 0.00 | 66 | 1021.7 |
| 20260503001334 | 58 | 342 | 4.0 | 6.0 | 0.00 | 0.00 | 0.00 | 66 | 1021.8 |
| 20260503000834 | 59 | 331 | 5.0 | 6.0 | 0.00 | 0.00 | 0.00 | 65 | 1021.8 |
| 20260503000319 | 59 | 360 | 3.0 | 5.0 | 0.00 | 0.00 | 0.00 | 65 | 1021.9 |
| 20260502235816 | 59 | 360 | 4.0 | 6.0 | 0.00 | 0.00 | 0.00 | 65 | 1021.9 |
| 20260502235333 | 59 | 346 | 4.0 | 6.0 | 0.00 | 0.00 | 0.00 | 65 | 1022.0 |
| 20260502234852 | 59 | 344 | 2.0 | 4.0 | 0.00 | 0.00 | 0.00 | 64 | 1021.9 |
| 20260502234328 | 59 | 302 | 2.0 | 5.0 | 0.00 | 0.00 | 0.00 | 65 | 1022.0 |
| 20260502233821 | 59 | 300 | 2.0 | 5.0 | 0.00 | 0.00 | 0.00 | 64 | 1022.1 |
| 20260502233321 | 59 | 33 | 2.0 | 5.0 | 0.00 | 0.00 | 0.00 | 63 | 1022.1 |
| 20260502232845 | 60 | 15 | 3.0 | 8.0 | 0.00 | 0.00 | 0.00 | 63 | 1022.1 |
| 20260502232322 | 60 | 22 | 5.0 | 8.0 | 0.00 | 0.00 | 0.00 | 63 | 1022.1 |
| 20260502231819 | 60 | 340 | 5.0 | 9.0 | 0.00 | 0.00 | 0.00 | 63 | 1022.2 |
| 20260502231336 | 59 | 16 | 5.0 | 9.0 | 0.00 | 0.00 | 0.00 | 64 | 1022.2 |
| 20260502230855 | 59 | 335 | 6.0 | 9.0 | 0.00 | 0.00 | 0.00 | 64 | 1022.3 |
| 20260502230328 | 59 | 15 | 2.0 | 5.0 | 0.00 | 0.00 | 0.00 | 64 | 1022.2 |
| 20260502225833 | 59 | 17 | 2.0 | 5.0 | 0.00 | 0.00 | 0.00 | 63 | 1022.3 |
| 20260502225322 | 60 | 301 | 3.0 | 8.0 | 0.00 | 0.00 | 0.00 | 62 | 1022.2 |
| 20260502224822 | 60 | 360 | 4.0 | 11.0 | 0.00 | 0.00 | 0.00 | 62 | 1022.3 |
| 20260502224320 | 61 | 24 | 5.0 | 11.0 | 0.00 | 0.00 | 0.00 | 61 | 1022.3 |
| 20260502223838 | 60 | 14 | 4.0 | 9.0 | 0.00 | 0.00 | 0.00 | 61 | 1022.3 |
| 20260502223334 | 60 | 312 | 4.0 | 8.0 | 0.00 | 0.00 | 0.00 | 62 | 1022.4 |
| 20260502222848 | 60 | 351 | 5.0 | 9.0 | 0.00 | 0.00 | 0.00 | 63 | 1022.4 |
| 20260502222323 | 60 | 5 | 6.0 | 9.0 | 0.00 | 0.00 | 0.00 | 62 | 1022.4 |
| 20260502221821 | 61 | 360 | 5.0 | 8.0 | 0.00 | 0.00 | 0.00 | 61 | 1022.3 |
| 20260502221348 | 61 | 360 | 6.0 | 8.0 | 0.00 | 0.00 | 0.00 | 61 | 1022.4 |
| 20260502220824 | 61 | 323 | 4.0 | 7.0 | 0.00 | 0.00 | 0.00 | 61 | 1022.3 |
| 20260502220321 | 61 | 329 | 3.0 | 8.0 | 0.00 | 0.00 | 0.00 | 61 | 1022.4 |
| 20260502215817 | 61 | 286 | 6.0 | 8.0 | 0.00 | 0.00 | 0.00 | 61 | 1022.4 |
| 20260502215336 | 61 | 275 | 3.0 | 7.0 | 0.00 | 0.00 | 0.00 | 61 | 1022.3 |
| 20260502214815 | 62 | 281 | 4.0 | 7.0 | 0.00 | 0.00 | 0.00 | 60 | 1022.4 |
| 20260502214331 | 62 | 15 | 2.0 | 6.0 | 0.00 | 0.00 | 0.00 | 59 | 1022.3 |
| 20260502213829 | 63 | 18 | 2.0 | 6.0 | 0.00 | 0.00 | 0.00 | 59 | 1022.2 |
| 20260502213326 | 63 | 46 | 1.0 | 6.0 | 0.00 | 0.00 | 0.00 | 58 | 1022.2 |
| 20260502212825 | 62 | 348 | 2.0 | 5.0 | 0.00 | 0.00 | 0.00 | 59 | 1022.3 |
| 20260502212324 | 62 | 11 | 2.0 | 11.0 | 0.00 | 0.00 | 0.00 | 59 | 1022.3 |
| 20260502211822 | 62 | 19 | 5.0 | 11.0 | 0.00 | 0.00 | 0.00 | 59 | 1022.2 |
| 20260502211320 | 61 | 19 | 4.0 | 8.0 | 0.00 | 0.00 | 0.00 | 60 | 1022.2 |
| 20260502210840 | 61 | 319 | 2.0 | 5.0 | 0.00 | 0.00 | 0.00 | 59 | 1022.3 |
| 20260502210336 | 61 | 311 | 4.0 | 5.0 | 0.00 | 0.00 | 0.00 | 60 | 1022.3 |
| 20260502205832 | 61 | 281 | 4.0 | 5.0 | 0.00 | 0.00 | 0.00 | 59 | 1022.4 |
| 20260502205330 | 62 | 267 | 4.0 | 8.0 | 0.00 | 0.00 | 0.00 | 58 | 1022.4 |
| 20260502204828 | 62 | 5 | 3.0 | 8.0 | 0.00 | 0.00 | 0.00 | 57 | 1022.3 |
| 20260502204344 | 63 | 310 | 4.0 | 6.0 | 0.00 | 0.00 | 0.00 | 56 | 1022.2 |
| 20260502203823 | 63 | 27 | 2.0 | 5.0 | 0.00 | 0.00 | 0.00 | 55 | 1022.3 |
| 20260502203323 | 63 | 42 | 1.0 | 5.0 | 0.00 | 0.00 | 0.00 | 55 | 1022.2 |
| 20260502202823 | 62 | 360 | 4.0 | 6.0 | 0.00 | 0.00 | 0.00 | 55 | 1022.3 |
| 20260502202321 | 62 | 333 | 4.0 | 6.0 | 0.00 | 0.00 | 0.00 | 54 | 1022.3 |
| 20260502201819 | 62 | 315 | 5.0 | 6.0 | 0.00 | 0.00 | 0.00 | 55 | 1022.2 |
| 20260502201317 | 62 | 292 | 4.0 | 7.0 | 0.00 | 0.00 | 0.00 | 55 | 1022.3 |
| 20260502200814 | 62 | 287 | 3.0 | 7.0 | 0.00 | 0.00 | 0.00 | 54 | 1022.4 |
| 20260502200333 | 63 | 283 | 3.0 | 4.0 | 0.00 | 0.00 | 0.00 | 53 | 1022.2 |
| 20260502195830 | 64 | 46 | 1.0 | 5.0 | 0.00 | 0.00 | 0.00 | 51 | 1022.2 |
| 20260502195327 | 64 | 46 | 2.0 | 8.0 | 0.00 | 0.00 | 0.00 | 50 | 1022.2 |
| 20260502194845 | 64 | 351 | 5.0 | 8.0 | 0.00 | 0.00 | 0.00 | 49 | 1022.1 |
| 20260502194323 | 64 | 323 | 5.0 | 8.0 | 0.00 | 0.00 | 0.00 | 50 | 1022.0 |
| 20260502193821 | 64 | 327 | 5.0 | 9.0 | 0.00 | 0.00 | 0.00 | 51 | 1022.1 |
| 20260502193319 | 64 | 336 | 5.0 | 9.0 | 0.00 | 0.00 | 0.00 | 50 | 1022.1 |
| 20260502192819 | 65 | 336 | 5.0 | 8.0 | 0.00 | 0.00 | 0.00 | 50 | 1021.9 |
| 20260502192318 | 65 | 326 | 5.0 | 9.0 | 0.00 | 0.00 | 0.00 | 50 | 1022.0 |
| 20260502191836 | 65 | 327 | 7.0 | 9.0 | 0.00 | 0.00 | 0.00 | 50 | 1022.0 |
| 20260502191330 | 65 | 332 | 5.0 | 8.0 | 0.00 | 0.00 | 0.00 | 50 | 1021.9 |
| 20260502190829 | 65 | 335 | 5.0 | 9.0 | 0.00 | 0.00 | 0.00 | 49 | 1021.9 |
| 20260502190347 | 65 | 340 | 4.0 | 9.0 | 0.00 | 0.00 | 0.00 | 49 | 1021.9 |
| 20260502185825 | 66 | 338 | 5.0 | 9.0 | 0.00 | 0.00 | 0.00 | 49 | 1021.8 |
| 20260502185345 | 66 | 344 | 5.0 | 9.0 | 0.00 | 0.00 | 0.00 | 48 | 1021.8 |
| 20260502184850 | 65 | 319 | 6.0 | 9.0 | 0.00 | 0.00 | 0.00 | 49 | 1021.8 |
| 20260502184327 | 66 | 322 | 6.0 | 9.0 | 0.00 | 0.00 | 0.00 | 49 | 1021.6 |
| 20260502183826 | 66 | 301 | 6.0 | 9.0 | 0.00 | 0.00 | 0.00 | 49 | 1021.7 |
| 20260502183322 | 66 | 323 | 6.0 | 8.0 | 0.00 | 0.00 | 0.00 | 49 | 1021.6 |
| 20260502182821 | 66 | 351 | 6.0 | 9.0 | 0.00 | 0.00 | 0.00 | 49 | 1021.5 |
| 20260502182340 | 66 | 319 | 8.0 | 9.0 | 0.00 | 0.00 | 0.00 | 50 | 1021.5 |
| 20260502181815 | 66 | 325 | 5.0 | 6.0 | 0.00 | 0.00 | 0.00 | 49 | 1021.5 |
| 20260502181333 | 66 | 324 | 5.0 | 6.0 | 0.00 | 0.00 | 0.00 | 49 | 1021.4 |
| 20260502180852 | 67 | 336 | 5.0 | 6.0 | 0.00 | 0.00 | 0.00 | 48 | 1021.5 |
| 20260502180329 | 67 | 333 | 5.0 | 6.0 | 0.00 | 0.00 | 0.00 | 48 | 1021.4 |
| 20260502170329 | 69 | 139 | 4.0 | 7.0 | 0.00 | 0.00 | 0.00 | 45 | 1021.6 |
| 20260502164319 | 69 | 186 | 1.0 | 12.0 | 0.00 | 0.00 | 0.00 | 46 | 1021.7 |
| 20260502163818 | 69 | 143 | 6.0 | 12.0 | 0.00 | 0.00 | 0.00 | 46 | 1021.7 |
| 20260502163316 | 69 | 130 | 2.0 | 8.0 | 0.00 | 0.00 | 0.00 | 46 | 1021.6 |
| 20260502162854 | 69 | 171 | 3.0 | 8.0 | 0.00 | 0.00 | 0.00 | 46 | 1021.7 |
| 20260502162329 | 69 | 128 | 3.0 | 8.0 | 0.00 | 0.00 | 0.00 | 46 | 1021.7 |
| 20260502161823 | 69 | 131 | 2.0 | 4.0 | 0.00 | 0.00 | 0.00 | 47 | 1021.8 |
| 20260502161320 | 69 | 138 | 2.0 | 6.0 | 0.00 | 0.00 | 0.00 | 48 | 1021.8 |
| 20260502160838 | 69 | 198 | 4.0 | 11.0 | 0.00 | 0.00 | 0.00 | 48 | 1021.9 |
| 20260502160317 | 69 | 171 | 5.0 | 11.0 | 0.00 | 0.00 | 0.00 | 48 | 1021.9 |
| 20260502152319 | 69 | 163 | 4.0 | 9.0 | 0.00 | 0.00 | 0.00 | 51 | 1022.1 |
| 20260502151818 | 68 | 203 | 6.0 | 10.0 | 0.00 | 0.00 | 0.00 | 48 | 1022.1 |
| 20260502151336 | 69 | 164 | 5.0 | 8.0 | 0.00 | 0.00 | 0.00 | 49 | 1022.2 |
| 20260502150834 | 68 | 164 | 3.0 | 9.0 | 0.00 | 0.00 | 0.00 | 50 | 1022.2 |
| 20260502150331 | 68 | 185 | 4.0 | 9.0 | 0.00 | 0.00 | 0.00 | 50 | 1022.1 |
| 20260502130323 | 68 | 136 | 5.0 | 12.0 | 0.00 | 0.00 | 0.00 | 49 | 1023.8 |
| 20260502123328 | 66 | 136 | 9.0 | 13.0 | 0.00 | 0.00 | 0.00 | 51 | 1024.1 |
| 20260502122825 | 66 | 136 | 9.0 | 13.0 | 0.00 | 0.00 | 0.00 | 52 | 1024.1 |
| 20260502122325 | 67 | 133 | 9.0 | 13.0 | 0.00 | 0.00 | 0.00 | 49 | 1024.1 |
| 20260502121824 | 66 | 159 | 8.0 | 14.0 | 0.00 | 0.00 | 0.00 | 52 | 1024.4 |
| 20260502121320 | 66 | 145 | 9.0 | 13.0 | 0.00 | 0.00 | 0.00 | 51 | 1024.4 |
| 20260502120819 | 66 | 152 | 6.0 | 13.0 | 0.00 | 0.00 | 0.00 | 52 | 1024.4 |
| 20260502120338 | 66 | 157 | 9.0 | 14.0 | 0.00 | 0.00 | 0.00 | 49 | 1024.4 |
| 20260502115852 | 66 | 136 | 8.0 | 12.0 | 0.00 | 0.00 | 0.00 | 52 | 1024.5 |
| 20260502115329 | 66 | 153 | 7.0 | 12.0 | 0.00 | 0.00 | 0.00 | 50 | 1024.7 |
| 20260502114828 | 66 | 138 | 8.0 | 12.0 | 0.00 | 0.00 | 0.00 | 49 | 1024.6 |
| 20260502114345 | 66 | 145 | 8.0 | 13.0 | 0.00 | 0.00 | 0.00 | 51 | 1024.7 |
| 20260502113843 | 65 | 135 | 8.0 | 13.0 | 0.00 | 0.00 | 0.00 | 52 | 1024.8 |
| 20260502113319 | 66 | 138 | 10.0 | 13.0 | 0.00 | 0.00 | 0.00 | 50 | 1024.8 |
| 20260502112817 | 65 | 149 | 9.0 | 12.0 | 0.00 | 0.00 | 0.00 | 52 | 1025.0 |
| 20260502112315 | 65 | 140 | 7.0 | 12.0 | 0.00 | 0.00 | 0.00 | 52 | 1025.1 |
| 20260502111859 | 65 | 146 | 9.0 | 15.0 | 0.00 | 0.00 | 0.00 | 52 | 1025.1 |
| 20260502111354 | 65 | 145 | 7.0 | 15.0 | 0.00 | 0.00 | 0.00 | 53 | 1025.2 |
| 20260502110830 | 64 | 165 | 7.0 | 11.0 | 0.00 | 0.00 | 0.00 | 54 | 1025.2 |
| 20260502110329 | 65 | 137 | 6.0 | 11.0 | 0.00 | 0.00 | 0.00 | 53 | 1025.4 |
| 20260502105828 | 64 | 173 | 3.0 | 11.0 | 0.00 | 0.00 | 0.00 | 54 | 1025.6 |
| 20260502105324 | 65 | 136 | 7.0 | 11.0 | 0.00 | 0.00 | 0.00 | 53 | 1025.6 |
| 20260502104820 | 65 | 207 | 6.0 | 10.0 | 0.00 | 0.00 | 0.00 | 54 | 1025.8 |
| 20260502104315 | 64 | 156 | 7.0 | 10.0 | 0.00 | 0.00 | 0.00 | 55 | 1025.9 |
| 20260502103831 | 64 | 144 | 4.0 | 10.0 | 0.00 | 0.00 | 0.00 | 55 | 1025.9 |
| 20260502103350 | 63 | 130 | 5.0 | 10.0 | 0.00 | 0.00 | 0.00 | 53 | 1025.9 |
| 20260502102827 | 63 | 194 | 6.0 | 9.0 | 0.00 | 0.00 | 0.00 | 55 | 1026.0 |
| 20260502102326 | 63 | 182 | 5.0 | 9.0 | 0.00 | 0.00 | 0.00 | 55 | 1026.0 |
| 20260502101321 | 63 | 174 | 3.0 | 11.0 | 0.00 | 0.00 | 0.00 | 54 | 1026.1 |
| 20260502100834 | 63 | 168 | 7.0 | 11.0 | 0.00 | 0.00 | 0.00 | 53 | 1026.2 |
| 20260502100351 | 63 | 137 | 4.0 | 8.0 | 0.00 | 0.00 | 0.00 | 55 | 1026.2 |
| 20260502091325 | 61 | 193 | 3.0 | 5.0 | 0.00 | 0.00 | 0.00 | 56 | 1026.5 |
| 20260502090823 | 61 | 206 | 4.0 | 5.0 | 0.00 | 0.00 | 0.00 | 54 | 1026.5 |
| 20260502090340 | 61 | 142 | 4.0 | 5.0 | 0.00 | 0.00 | 0.00 | 58 | 1026.7 |
| 20260502071332 | 56 | 178 | 4.0 | 7.0 | 0.00 | 0.00 | 0.00 | 73 | 1027.5 |
| 20260502070851 | 57 | 190 | 6.0 | 7.0 | 0.00 | 0.00 | 0.00 | 71 | 1027.5 |
| 20260502070349 | 57 | 136 | 2.0 | 5.0 | 0.00 | 0.00 | 0.00 | 71 | 1027.5 |
| 20260502065827 | 57 | 144 | 2.0 | 4.0 | 0.00 | 0.00 | 0.00 | 71 | 1027.6 |
| 20260502065324 | 57 | 131 | 2.0 | 4.0 | 0.00 | 0.00 | 0.00 | 71 | 1027.6 |
| 20260502064841 | 56 | 168 | 2.0 | 4.0 | 0.00 | 0.00 | 0.00 | 73 | 1027.6 |
| 20260502064319 | 56 | 134 | 2.0 | 5.0 | 0.00 | 0.00 | 0.00 | 72 | 1027.6 |
| 20260502063817 | 56 | 137 | 3.0 | 5.0 | 0.00 | 0.00 | 0.00 | 72 | 1027.6 |
| 20260502063317 | 56 | 174 | 1.0 | 4.0 | 0.00 | 0.00 | 0.00 | 71 | 1027.6 |
| 20260502062814 | 56 | 197 | 2.0 | 4.0 | 0.00 | 0.00 | 0.00 | 70 | 1027.7 |
| 20260502062341 | 56 | 71 | 1.0 | 3.0 | 0.00 | 0.00 | 0.00 | 71 | 1027.6 |
| 20260502061817 | 56 | 61 | 1.0 | 4.0 | 0.00 | 0.00 | 0.00 | 71 | 1027.6 |
| 20260502061316 | 55 | 61 | 3.0 | 4.0 | 0.00 | 0.00 | 0.00 | 72 | 1027.6 |
| 20260502060814 | 55 | 57 | 1.0 | 3.0 | 0.00 | 0.00 | 0.00 | 71 | 1027.6 |
| 20260502060334 | 55 | 57 | 1.0 | 3.0 | 0.00 | 0.00 | 0.00 | 71 | 1027.7 |
| 20260502055832 | 55 | 56 | 1.0 | 2.0 | 0.00 | 0.00 | 0.00 | 72 | 1027.7 |
| 20260502055328 | 54 | 219 | 0.0 | 4.0 | 0.00 | 0.00 | 0.00 | 72 | 1027.6 |
| 20260502054824 | 54 | 217 | 2.0 | 4.0 | 0.00 | 0.00 | 0.00 | 71 | 1027.7 |
| 20260502054322 | 54 | 298 | 0.0 | 2.0 | 0.00 | 0.00 | 0.00 | 72 | 1027.6 |
| 20260502053820 | 53 | 298 | 0.0 | 3.0 | 0.00 | 0.00 | 0.00 | 72 | 1027.7 |
| 20260502053320 | 53 | 296 | 2.0 | 3.0 | 0.00 | 0.00 | 0.00 | 71 | 1027.7 |
| 20260502052818 | 53 | 296 | 1.0 | 4.0 | 0.00 | 0.00 | 0.00 | 72 | 1027.7 |
| 20260502052316 | 52 | 308 | 2.0 | 4.0 | 0.00 | 0.00 | 0.00 | 71 | 1027.7 |
| 20260502051834 | 52 | 309 | 2.0 | 4.0 | 0.00 | 0.00 | 0.00 | 71 | 1027.7 |
| 20260502051332 | 52 | 306 | 3.0 | 5.0 | 0.00 | 0.00 | 0.00 | 72 | 1027.7 |
| 20260502050846 | 52 | 292 | 4.0 | 5.0 | 0.00 | 0.00 | 0.00 | 71 | 1027.6 |
| 20260502050322 | 52 | 303 | 2.0 | 4.0 | 0.00 | 0.00 | 0.00 | 70 | 1027.6 |
| 20260502045818 | 52 | 301 | 3.0 | 4.0 | 0.00 | 0.00 | 0.00 | 70 | 1027.6 |
| 20260502045335 | 52 | 286 | 1.0 | 3.0 | 0.00 | 0.00 | 0.00 | 70 | 1027.6 |
| 20260502044832 | 52 | 286 | 1.0 | 3.0 | 0.00 | 0.00 | 0.00 | 71 | 1027.6 |
| 20260502044349 | 52 | 286 | 2.0 | 3.0 | 0.00 | 0.00 | 0.00 | 71 | 1027.6 |
| 20260502043847 | 52 | 320 | 1.0 | 3.0 | 0.00 | 0.00 | 0.00 | 71 | 1027.7 |
| 20260502043323 | 52 | 321 | 1.0 | 3.0 | 0.00 | 0.00 | 0.00 | 71 | 1027.6 |
| 20260502042821 | 52 | 335 | 0.0 | 4.0 | 0.00 | 0.00 | 0.00 | 71 | 1027.6 |
| 20260502042321 | 51 | 335 | 2.0 | 4.0 | 0.00 | 0.00 | 0.00 | 72 | 1027.6 |
| 20260502041839 | 51 | 332 | 3.0 | 4.0 | 0.00 | 0.00 | 0.00 | 72 | 1027.6 |
| 20260502041336 | 51 | 322 | 1.0 | 4.0 | 0.00 | 0.00 | 0.00 | 72 | 1027.7 |
| 20260502040833 | 51 | 322 | 2.0 | 4.0 | 0.00 | 0.00 | 0.00 | 72 | 1027.7 |
| 20260502040351 | 51 | 321 | 3.0 | 4.0 | 0.00 | 0.00 | 0.00 | 72 | 1027.7 |
| 20260502035848 | 52 | 336 | 2.0 | 3.0 | 0.00 | 0.00 | 0.00 | 71 | 1027.6 |
| 20260502035328 | 52 | 336 | 1.0 | 4.0 | 0.00 | 0.00 | 0.00 | 71 | 1027.6 |
| 20260502034846 | 52 | 313 | 3.0 | 8.0 | 0.00 | 0.00 | 0.00 | 71 | 1027.5 |
| 20260502034323 | 52 | 318 | 3.0 | 9.0 | 0.00 | 0.00 | 0.00 | 71 | 1027.5 |
| 20260502033851 | 51 | 309 | 5.0 | 9.0 | 0.00 | 0.00 | 0.00 | 71 | 1027.5 |
| 20260502033349 | 51 | 42 | 2.0 | 4.0 | 0.00 | 0.00 | 0.00 | 71 | 1027.5 |
| 20260502032826 | 51 | 288 | 1.0 | 5.0 | 0.00 | 0.00 | 0.00 | 71 | 1027.5 |
| 20260502032321 | 52 | 271 | 3.0 | 5.0 | 0.00 | 0.00 | 0.00 | 71 | 1027.5 |
| 20260502031818 | 52 | 350 | 2.0 | 4.0 | 0.00 | 0.00 | 0.00 | 70 | 1027.5 |
| 20260502031318 | 51 | 326 | 2.0 | 4.0 | 0.00 | 0.00 | 0.00 | 71 | 1027.6 |
| 20260502030817 | 51 | 326 | 1.0 | 4.0 | 0.00 | 0.00 | 0.00 | 72 | 1027.5 |
| 20260502030316 | 51 | 319 | 3.0 | 4.0 | 0.00 | 0.00 | 0.00 | 72 | 1027.6 |
| 20260502025814 | 51 | 317 | 3.0 | 5.0 | 0.00 | 0.00 | 0.00 | 72 | 1027.6 |
| 20260502025356 | 51 | 315 | 4.0 | 5.0 | 0.00 | 0.00 | 0.00 | 73 | 1027.6 |
| 20260502024852 | 51 | 340 | 3.0 | 5.0 | 0.00 | 0.00 | 0.00 | 73 | 1027.5 |
| 20260502024330 | 51 | 345 | 1.0 | 4.0 | 0.00 | 0.00 | 0.00 | 73 | 1027.6 |
| 20260502023829 | 51 | 346 | 3.0 | 5.0 | 0.00 | 0.00 | 0.00 | 72 | 1027.5 |
| 20260502023326 | 51 | 336 | 4.0 | 5.0 | 0.00 | 0.00 | 0.00 | 72 | 1027.5 |
| 20260502022823 | 51 | 319 | 4.0 | 5.0 | 0.00 | 0.00 | 0.00 | 73 | 1027.6 |
| 20260502022322 | 51 | 311 | 4.0 | 4.0 | 0.00 | 0.00 | 0.00 | 72 | 1027.6 |
| 20260502021819 | 51 | 341 | 1.0 | 3.0 | 0.00 | 0.00 | 0.00 | 72 | 1027.6 |